DELTA 1 DEB

Satellite information

Favourite Embed

Satellite Type and Status

DEBRISIN ORBIT

Key statistics

Satellite DELTA 1 DEB at a glance.

Uptime

17933

Days in orbit

Revolutions

≈ 12.5

Per day

Orbit

SSO

Sun Synchronous Orbit

Inclination

101.7

Latest

Satellite identification and parameters

Extended collection of information and parameters for DELTA 1 DEB.

Object identification

Identified? True

Debris? True

Object name: DELTA 1 DEB

International designator: 1976-077CY

Object number (NORAD): 10870

Object ID (CCSDS): 10870

Country: UNITED STATES OF AMERICA (US)

Current information (Y/N): Y

RCS size: SMALL

Orbital parameters

Period: 115.321 minutes

Inclination: 101.7035 deg

SMA: 7848.1 km

Apoapsis: 1486.345 km

Periapsis: 1453.585 km

RAAN: 227.8645 deg

Eccentricy: 0.00208713

Argument of periapsis: 22.7387 deg

Mean anomaly: 100.7143 deg

Mean motion: 12.48693788 rev/day

Mean motion (dot): 0.00000227 rev/day2

B* drag term: 0.0018096515 1/REarth

Two-line elements (TLE)

Creation date: Sept. 1, 2025, 7:24 p.m.

Reference frame: TEME

Reference center: EARTH

Epoch: Sept. 1, 2025, 12:05 p.m. UTC

TLE line 0: 0 DELTA 1 DEB

TLE line 1: 1 10870U 76077CY 25244.50366927 .00000227 00000-0 18097-2 0 9996

TLE line 2: 2 10870 101.7035 227.8645 0020871 22.7387 100.7143 12.48693788227829

Live tracking on map

Real-time ground track for satellite DELTA 1 DEB.

In-orbit conjunctions

A list of the most updated potential collisions computed for object DELTA 1 DEB.

Target Orbit TCA Probability of collision Miss distance Type
COSMOS 1057 LEO 2025-07-14 21:34:15 0.0003464643 49.0 (m) PAYLOAD
DELTA 1 DEB SSO 2025-03-04 05:02:08 0.000143686 196.0 (m) DEBRIS
COSMOS 417 LEO 2024-07-11 03:59:39 0.0002161769 206.0 (m) PAYLOAD
COSMOS 716 LEO 2024-05-31 23:24:05 0.0001448637 165.0 (m) PAYLOAD

Associated space launch

Meteorological satellite using radiometric imaging

DELTA 1 DEB was lifted into orbit during the mission ‘Delta 2310 | NOAA 5’, on board a Delta 2310 space rocket.

The launch took place on July 29, 1976, 5:07 p.m. from Space Launch Complex 2W.

For more information about the launch, click the button.

Launch to space Delta 2310 | NOAA 5
Delta 2310 | NOAA 5

Agency: N/A

Status: Launch Successful

Launch date: July 29, 1976, 5:07 p.m. UTC

Rocket: Delta 2310

Launch pad: Space Launch Complex 2W

Location: Vandenberg SFB, CA, USA

...

Latest news about this satellite

There are no fresh news available about this satellite. Check back as we update our databases every day.


Newsletter sign-up

Weekly statistics, charts and insights to help you stay on top of the space industry.